Location: Oshawa
(43.9000°N, 78.8670°W)
Time: 21:51:20
(UTC-04:00)

Courier 1B - All Passes

Search period start: 22 July 2014 00:00
Search period end: 01 August 2014 00:00
Orbit: 963 x 1209 km, 28.3° (Epoch: 22 July)

Date Brightness Start Highest point End Pass type
(mag) Time Alt. Az. Time Alt. Az. Time Alt. Az.
22 Jul - 00:06:35 10° S 00:10:00 13° SSE 00:13:22 10° SE night (unlit)
22 Jul - 01:57:27 10° SW 02:03:05 22° S 02:08:33 10° SE visible
22 Jul - 03:50:44 10° SW 03:56:16 22° S 04:01:35 10° SE visible
22 Jul - 05:46:03 10° SW 05:49:12 13° SSW 05:52:17 10° S daylight
22 Jul - 23:15:10 10° SSE 23:16:28 10° SSE 23:17:46 10° SE night (unlit)
23 Jul - 01:04:03 10° SSW 01:09:29 21° SSE 01:14:48 10° ESE visible
23 Jul - 02:56:53 10° SW 03:02:41 24° S 03:08:17 10° SE visible
23 Jul - 04:51:24 10° SW 04:55:44 16° SSW 04:59:56 10° SSE visible
24 Jul - 00:10:51 10° SSW 00:15:53 19° SSE 00:20:52 10° ESE night (unlit)
24 Jul - 02:03:09 10° SW 02:09:05 24° S 02:14:51 10° SE visible
24 Jul - 03:57:09 10° WSW 04:02:13 19° SSW 04:07:08 10° SSE visible
24 Jul - 23:17:56 10° SSW 23:22:19 16° SSE 23:26:40 10° SE visible
25 Jul - 01:09:32 10° SW 01:15:27 24° S 01:21:16 10° SE night (unlit)
25 Jul - 03:03:05 10° WSW 03:08:40 22° S 03:14:04 10° SE visible
25 Jul - 04:59:15 10° SW 05:01:36 12° SSW 05:03:55 10° S visible
25 Jul - 22:25:32 10° S 22:28:45 13° SSE 22:31:59 10° SE visible
26 Jul - 00:16:04 10° SW 00:21:50 23° S 00:27:32 10° ESE visible
26 Jul - 02:09:11 10° SW 02:15:04 24° S 02:20:49 10° SE visible
26 Jul - 04:04:09 10° SW 04:08:07 15° SSW 04:12:00 10° S visible
26 Jul - 23:22:46 10° SSW 23:28:13 21° SSE 23:33:39 10° ESE visible
27 Jul - 01:15:24 10° SW 01:21:26 25° S 01:27:23 10° SE night (unlit)
27 Jul - 03:09:42 10° WSW 03:14:35 18° SSW 03:19:22 10° SSE visible
27 Jul - 22:29:42 10° SSW 22:34:37 18° SSE 22:39:33 10° ESE visible
28 Jul - 00:21:45 10° SW 00:27:48 25° S 00:33:48 10° SE visible
28 Jul - 02:15:33 10° WSW 02:21:01 21° SSW 02:26:23 10° SSE night (unlit)
28 Jul - 21:36:59 10° S 21:41:03 15° SSE 21:45:10 10° SE visible
28 Jul - 23:28:15 10° SW 23:34:09 24° S 23:40:05 10° SE visible
29 Jul - 01:21:36 10° WSW 01:27:24 23° S 01:33:09 10° SE visible
29 Jul - 03:17:09 10° SW 03:20:27 13° SSW 03:23:42 10° S night (unlit)
29 Jul - 20:44:57 10° S 20:47:32 12° SSE 20:50:08 10° SE daylight
29 Jul - 22:34:54 10° SW 22:40:32 22° S 22:46:14 10° ESE visible
30 Jul - 00:27:48 10° SW 00:33:46 24° S 00:39:45 10° SE visible
30 Jul - 02:22:26 10° SW 02:26:55 16° SSW 02:31:20 10° SSE night (unlit)
30 Jul - 21:41:46 10° SSW 21:46:56 20° SSE 21:52:12 10° ESE visible
30 Jul - 23:34:08 10° SW 23:40:08 25° S 23:46:11 10° SE visible
31 Jul - 01:28:10 10° WSW 01:33:20 19° SSW 01:38:28 10° SSE visible
31 Jul - 20:48:53 10° SSW 20:53:22 17° SSE 20:57:58 10° SE daylight
31 Jul - 22:40:36 10° SW 22:46:29 24° S 22:52:29 10° SE visible
